Alpha, California Weather observations

Data are for observation ending at time listed.
 Day   Time    Ave.   Ave.  Ave.  Vector   Max.   Stn.    Total    Solar   Ave.   Snow 
  of    of     Air    Rel.  Wind   Wind    Wind   Baro.  Precip.   Rad.    Soil   Depth
Year   Day     Temp.  Hum.  Speed  Dir.    Gust   Pres.                    Temp.       
2026   (PST)    F      %     mph   deg.    mph     mb.     in.     W/m2     F      in. 
---------------------------------------------------------------------------------------  
 122   12:50   54.9    39   11.6   205     24.6   785.1    0.00     346    999.0  999.0
 122   13:00   55.0    39   13.4   195     25.5   785.0    0.00     352    999.0  999.0
 122   13:10   54.7    41    9.3   188     19.6   785.0    0.00     234    999.0  999.0
 122   13:20   53.5    43   11.7   206     26.1   784.9    0.00     150    999.0  999.0
 122   13:30   53.1    43   11.9   203     21.9   784.9    0.00     144    999.0  999.0
 122   13:40   53.4    43   12.8   193     24.8   784.8    0.00     194    999.0  999.0
 122   13:50   53.6    43   10.2   208     18.8   784.7    0.00     190    999.0  999.0
 122   14:00   53.2    44   15.6   203     30.0   784.6    0.00     166    999.0  999.0
 122   14:10   53.1    45   13.5   197     25.1   784.6    0.00     175    999.0  999.0
 122   14:20   53.0    47   12.0   197     24.8   784.5    0.00     147    999.0  999.0
 122   14:30   52.8    47   10.8   184     20.8   784.5    0.00     133    999.0  999.0
 122   14:40   52.5    47   13.0   185     24.1   784.4    0.00     112    999.0  999.0
 122   14:50   52.6    49    8.9   187     20.7   784.3    0.00     106    999.0  999.0
 122   15:00   52.2    51    8.2   190     19.7   784.2    0.00      96    999.0  999.0
 122   15:10   52.6    52   10.0   199     18.9   784.0    0.00     133    999.0  999.0
 122   15:20   52.6    49    8.4   184     17.8   783.9    0.00     103    999.0  999.0
 122   15:30   52.6    50    9.2   206     22.6   783.9    0.00     144    999.0  999.0
 122   15:40   52.1    53    9.8   200     18.3   783.8    0.00      78    999.0  999.0
 122   15:50   51.9    54    6.4   197     13.4   783.8    0.00     102    999.0  999.0
 122   16:00   52.1    54    8.4   192     13.3   783.8    0.00     105    999.0  999.0
 122   16:10   52.0    53    7.9   205     18.7   783.7    0.00      61    999.0  999.0
 122   16:20   51.5    55    7.2   207     14.9   783.6    0.00      69    999.0  999.0
 122   16:30   51.4    55    7.0   194     15.7   783.6    0.00      39    999.0  999.0
 122   16:40   50.8    56   11.0   186     17.6   783.6    0.00      51    999.0  999.0
 122   16:50   50.7    56    9.3   194     15.5   783.7    0.00      49    999.0  999.0
 122   17:00   50.6    57   10.0   192     24.2   783.7    0.00      47    999.0  999.0
 122   17:10   50.4    58    7.5   199     14.8   783.7    0.00      41    999.0  999.0
 122   17:20   50.2    56   10.0   189     18.2   783.6    0.00      37    999.0  999.0
 122   17:30   50.1    57    7.9   196     15.9   783.7    0.00      33    999.0  999.0
 122   17:40   49.5    63    5.5   198      8.8   783.7    0.00      30    999.0  999.0
 122   17:50   49.2    65    4.6   189      8.9   783.7    0.00      27    999.0  999.0
 122   18:00   49.3    61    4.1   169      9.1   783.6    0.00      29    999.0  999.0
 122   18:10   49.5    60    3.8   174      7.1   783.5    0.00      27    999.0  999.0
 122   18:20   49.2    60    7.8   186     14.5   783.4    0.00      16    999.0  999.0
 122   18:30   48.9    61    8.2   200     12.3   783.3    0.00      10    999.0  999.0
 122   18:40   48.7    62    6.0   201     14.2   783.5    0.00       5    999.0  999.0
 122   18:50   48.2    68    4.9   202     10.2   783.5    0.00       2    999.0  999.0
 122   19:00   47.8    72    2.5   216      4.3   783.7    0.00       1    999.0  999.0
 122   19:10   47.2    77    1.7   243      3.4   783.7    0.00       0    999.0  999.0
 122   19:20   46.9    78    1.7   214      4.2   783.8    0.00       0    999.0  999.0
 122   19:30   46.8    78    2.1   190      3.8   783.9    0.00       0    999.0  999.0
 122   19:40   47.4    70    2.9   144      5.8   783.8    0.00       0    999.0  999.0
 122   19:50   47.9    67    2.5   150      5.8   783.9    0.00       0    999.0  999.0
 122   20:00   47.8    66    3.4   137      6.1   783.9    0.00       0    999.0  999.0
 122   20:10   47.7    66    3.2   129      6.1   783.9    0.00       0    999.0  999.0
 122   20:20   47.8    62    4.2   136      6.7   783.9    0.00       0    999.0  999.0
 122   20:30   47.9    61    4.1   137      6.1   783.9    0.00       0    999.0  999.0
 122   20:40   48.0    59    4.4   136      6.8   784.0    0.00       0    999.0  999.0
 122   20:50   48.0    56    4.9   139      7.2   784.0    0.00       0    999.0  999.0
 122   21:00   48.0    56    4.9   133      7.2   784.1    0.00       0    999.0  999.0
 122   21:10   48.1    53    5.0   128      8.4   784.1    0.00       0    999.0  999.0
 122   21:20   48.2    51    5.4   132      8.5   784.0    0.00       0    999.0  999.0
 122   21:30   47.9    52    4.9   128      8.3   784.0    0.00       0    999.0  999.0
 122   21:40   47.9    52    6.3   123     12.3   784.0    0.00       0    999.0  999.0
 122   21:50   47.6    55    6.0   126     12.7   784.0    0.00       0    999.0  999.0
 122   22:00   47.4    56    5.7   128      9.7   783.9    0.00       0    999.0  999.0
 122   22:10   47.5    55    6.9   127     13.5   783.9    0.00       0    999.0  999.0
 122   22:20   47.2    55    6.4   131     11.7   783.9    0.00       0    999.0  999.0
 122   22:30   47.5    53    6.9   126     14.9   783.8    0.00       0    999.0  999.0
 122   22:40   47.4    52    6.8   132     12.4   783.8    0.00       0    999.0  999.0
 122   22:50   47.2    53    6.5   126     11.2   783.7    0.00       0    999.0  999.0
 122   23:00   47.2    52    7.1   128     13.7   783.7    0.00       0    999.0  999.0
 122   23:10   47.2    52    7.1   128     13.7   783.7    0.00       0    999.0  999.0
 122   23:20   47.4    51    8.4   134     13.7   783.7    0.00       0    999.0  999.0
 122   23:30   47.3    51    8.1   128     12.6   783.7    0.00       0    999.0  999.0
 122   23:40   47.0    52    7.4   128     12.1   783.6    0.00       0    999.0  999.0
 122   23:50   46.9    52    8.5   126     15.7   783.6    0.00       0    999.0  999.0
 123    0:00   46.9    52    7.7   122     15.5   783.5    0.00       0    999.0  999.0
 123    0:10   46.8    52    7.9   125     13.9   783.5    0.00       0    999.0  999.0
 123    0:20   46.6    53    8.0   118     14.5   783.4    0.00       0    999.0  999.0
 123    0:30   46.5    53    8.0   116     11.7   783.3    0.00       0    999.0  999.0
 123    0:40   46.1    54    7.5   116     13.7   783.1    0.00       0    999.0  999.0
 123    0:50   46.4    53    8.4   117     15.0   783.0    0.00       0    999.0  999.0
 123    1:00   46.2    54    7.6   115     12.4   782.8    0.00       0    999.0  999.0
 123    1:10   46.6    52    9.3   116     17.4   782.7    0.00       0    999.0  999.0
 123    1:20   46.6    52    8.8   115     15.9   782.5    0.00       0    999.0  999.0
 123    1:30   46.5    52    8.9   112     16.2   782.5    0.00       0    999.0  999.0
 123    1:40   46.7    50    8.7   117     15.9   782.4    0.00       0    999.0  999.0
 123    1:50   46.6    50    8.3   109     16.7   782.4    0.00       0    999.0  999.0
 123    2:00   46.8    48    9.0   112     15.5   782.3    0.00       0    999.0  999.0
 123    2:10   47.1    47    9.3   113     17.5   782.3    0.00       0    999.0  999.0
 123    2:20   47.3    46    8.7   114     21.9   782.2    0.00       0    999.0  999.0
 123    2:30   47.0    46    8.9   113     16.8   782.3    0.00       0    999.0  999.0
 123    2:40   47.1    46    8.8   115     17.8   782.3    0.00       0    999.0  999.0
 123    2:50   47.2    45    9.1   113     17.3   782.2    0.00       0    999.0  999.0
 123    3:00   47.4    45    9.7   114     18.1   782.2    0.00       0    999.0  999.0
 123    3:10   46.7    46    8.5   115     16.7   782.2    0.00       0    999.0  999.0
 123    3:20   46.6    47    8.1   115     15.1   782.1    0.00       0    999.0  999.0
 123    3:30   46.5    46    8.4   122     15.3   782.1    0.00       0    999.0  999.0
 123    3:40   46.9    45    9.0   108     18.9   782.0    0.00       0    999.0  999.0
 123    3:50   46.5    47    7.8   120     15.1   781.9    0.00       0    999.0  999.0
 123    4:00   45.7    49    7.0   108     13.5   781.9    0.00       0    999.0  999.0
 123    4:10   45.8    49    6.8   106     11.8   781.8    0.00       0    999.0  999.0
 123    4:20   45.8    48    5.7    90     10.4   781.8    0.00       0    999.0  999.0
 123    4:30   45.7    48    7.9   110     13.2   781.7    0.00       0    999.0  999.0
 123    4:40   45.4    49    7.2   113     15.4   781.7    0.00       0    999.0  999.0
 123    4:50   45.0    50    7.3   122     12.6   781.7    0.00       0    999.0  999.0
 123    5:00   44.7    51    7.6   124     12.3   781.7    0.00       1    999.0  999.0
 123    5:10   45.0    50    9.3   118     15.9   781.7    0.00       1    999.0  999.0
 123    5:20   44.9    51    8.8   121     15.7   781.7    0.00       3    999.0  999.0
 123    5:30   44.2    53    6.9   124     11.2   781.7    0.00       6    999.0  999.0
 123    5:40   44.7    51    7.5   104     13.2   781.7    0.00      11    999.0  999.0
 123    5:50   45.3    49    6.4    94     13.7   781.7    0.00      23    999.0  999.0
 123    6:00   45.5    48    6.9    97     14.8   781.7    0.00      37    999.0  999.0
 123    6:10   45.8    48    7.4    99     12.7   781.7    0.00      41    999.0  999.0
 123    6:20   45.6    49    7.1    96     12.3   781.8    0.00      41    999.0  999.0
 123    6:30   45.8    48    7.2   102     14.0   781.8    0.00      41    999.0  999.0
 123    6:40   45.9    49    7.1   110     12.4   781.7    0.00      60    999.0  999.0
 123    6:50   45.6    50    6.6   126     12.7   781.7    0.00      56    999.0  999.0
 123    7:00   46.4    48    7.2   121     12.9   781.7    0.00     129    999.0  999.0
 123    7:10   48.1    46    7.1   118     13.7   781.8    0.00     189    999.0  999.0
 123    7:20   48.9    46    6.9   128     12.0   781.8    0.00     218    999.0  999.0
 123    7:30   49.0    44    8.1   133     13.2   781.9    0.00     157    999.0  999.0
 123    7:40   48.7    45    5.0   124     10.4   781.9    0.00     124    999.0  999.0
 123    7:50   49.3    44    4.2   133      9.7   782.0    0.00     165    999.0  999.0
 123    8:00   49.2    42    4.6   139      9.3   782.0    0.00     146    999.0  999.0
 123    8:10   49.4    41    4.8   138      9.0   782.1    0.00     181    999.0  999.0
 123    8:20   49.2    41    5.1   127     11.4   782.1    0.00     199    999.0  999.0
 123    8:30   50.0    41    2.8   132      5.7   782.1    0.00     232    999.0  999.0
 123    8:40   50.6    42    2.1   229      5.6   782.1    0.00     203    999.0  999.0
 123    8:50   50.4    44    1.5   202      4.5   782.1    0.00     244    999.0  999.0
 123    9:00   50.4    48    1.1   304      4.6   782.1    0.00     268    999.0  999.0
 123    9:10   49.4    46    2.6   293      6.5   782.1    0.00     281    999.0  999.0
 123    9:20   48.5    47    2.3   309      6.4   782.1    0.00     149    999.0  999.0
 123    9:30   48.3    47    2.8   313      6.1   782.1    0.00     162    999.0  999.0
 123    9:40   49.1    48    1.1   296      6.4   782.2    0.00     203    999.0  999.0
 123    9:50   48.8    49    3.5   301      7.6   782.1    0.00     168    999.0  999.0
 123   10:00   48.1    49    2.6   314      6.5   782.1    0.00     107    999.0  999.0
 123   10:10   48.0    48    2.7   322      6.8   782.1    0.00     114    999.0  999.0
 123   10:20   47.3    52    3.4   293      6.2   782.0    0.00      64    999.0  999.0
 123   10:30   46.1    52    4.4   253      8.1   782.2    0.00      49    999.0  999.0
 123   10:40   45.1    55    4.3   255      8.6   782.3    0.00      69    999.0  999.0
 123   10:50   44.9    57    3.6   291      6.9   782.1    0.00      70    999.0  999.0
 123   11:00   44.8    58    2.7   298      5.6   782.1    0.00      46    999.0  999.0
 123   11:10   44.5    62    2.6   244      4.3   782.4    0.00      16    999.0  999.0
 123   11:20   42.4    68    2.2   275      4.8   782.4    0.00      11    999.0  999.0
 123   11:30   41.2    74    1.5   309      3.5   782.2    0.00      14    999.0  999.0
 123   11:40   41.2    74    1.5     4      3.3   782.3    0.00      14    999.0  999.0
 123   11:50   41.2    74    1.5    24      2.0   782.3    0.00      20    999.0  999.0
 123   12:00   41.9    67    1.3    65      2.7   782.3    0.00      11    999.0  999.0
 123   12:10   42.0    69    5.2   100     11.0   782.3    0.00       7    999.0  999.0
 123   12:20   42.8    53    7.3   128     16.7   782.2    0.00       7    999.0  999.0
 123   12:30   42.1    60    3.3   142      7.2   782.3    0.00      11    999.0  999.0
 123   12:40   41.9    62    1.9   346      5.8   782.1    0.00      16    999.0  999.0

Return to Alpha graphs page.


Western Regional Climate Center,wrcc@dri.edu